FW8114 Weather Reports


time (UTC)temp
C
wind
direction
speed
KPH
gust
KPH
rain 1hr
cm
rain 24hr
cm
rain mn
cm
humidity
%
barometer
mb
20260510192607 23 317 9.7 14.5 0.00 0.00 0.00 59 1013.5
20260510192103 23 336 12.9 17.7 0.00 0.00 0.00 57 1013.5
20260510191600 22 205 9.7 14.5 0.00 0.00 0.00 58 1013.5
20260510191057 23 301 11.3 14.5 0.00 0.00 0.00 57 1013.6
20260510190554 23 311 4.8 4.8 0.00 0.00 0.00 58 1013.6
20260510190052 23 335 4.8 4.8 0.00 0.00 0.00 55 1013.6
20260510185548 23 247 4.8 4.8 0.00 0.00 0.00 55 1013.5
20260510185045 23 243 1.6 3.2 0.00 0.00 0.00 59 1013.6
20260510184543 23 23 12.9 14.5 0.00 0.00 0.00 56 1013.8
20260510184038 23 185 4.8 9.7 0.00 0.00 0.00 57 1013.7
20260510183533 23 296 14.5 20.9 0.00 0.00 0.00 56 1013.6
20260510183029 23 342 8.0 11.3 0.00 0.00 0.00 57 1013.5
20260510182526 23 17 1.6 3.2 0.00 0.00 0.00 57 1013.7
20260510182021 23 341 14.5 20.9 0.00 0.00 0.00 59 1013.5
20260510181519 23 266 3.2 4.8 0.00 0.00 0.00 61 1013.5
20260510181015 22 300 4.8 8.0 0.00 0.00 0.00 63 1013.8
20260510180512 22 332 8.0 9.7 0.00 0.00 0.00 62 1013.7
20260510180010 22 291 6.4 11.3 0.00 0.00 0.00 64 1013.6
20260510175504 22 273 8.0 12.9 0.00 0.00 0.00 63 1013.6
20260510175001 22 327 6.4 9.7 0.00 0.00 0.00 63 1013.6
20260510174459 22 303 8.0 12.9 0.00 0.00 0.00 64 1013.7
20260510173955 22 288 9.7 12.9 0.00 0.00 0.00 64 1013.8
20260510173451 22 258 8.0 11.3 0.00 0.00 0.00 64 1013.6
20260510172948 22 324 6.4 8.0 0.00 0.00 0.00 63 1013.5
20260510172443 21 285 1.6 3.2 0.00 0.00 0.00 66 1013.6
20260510171940 22 239 4.8 8.0 0.00 0.00 0.00 65 1013.5
20260510171437 22 276 1.6 1.6 0.00 0.00 0.00 67 1013.4
20260510170934 22 181 4.8 8.0 0.00 0.00 0.00 66 1013.5
20260510170431 21 324 8.0 9.7 0.00 0.00 0.00 67 1013.5
20260510165926 21 244 3.2 4.8 0.00 0.00 0.00 69 1013.5
20260510165422 21 264 3.2 4.8 0.00 0.00 0.00 69 1013.5
20260510164920 21 296 4.8 9.7 0.00 0.00 0.00 68 1013.7
20260510164417 21 239 6.4 8.0 0.00 0.00 0.00 70 1013.9
20260510163917 21 20 1.6 1.6 0.00 0.00 0.00 70 1013.6
20260510163413 20 212 1.6 3.2 0.00 0.00 0.00 73 1013.6
20260510162907 20 198 0.0 0.0 0.00 0.00 0.00 72 1013.9
20260510162406 20 217 4.8 4.8 0.00 0.00 0.00 73 1013.7
20260510161901 20 205 1.6 3.2 0.00 0.00 0.00 75 1013.9
20260510161357 20 280 3.2 3.2 0.00 0.00 0.00 74 1013.7
20260510160853 19 272 1.6 3.2 0.00 0.00 0.00 76 1013.9
20260510160350 19 304 3.2 3.2 0.00 0.00 0.00 78 1014.1
20260510155844 18 218 1.6 1.6 0.00 0.00 0.00 78 1013.9
20260510155342 18 238 0.0 0.0 0.00 0.00 0.00 78 1014.2
20260510154837 18 243 1.6 1.6 0.00 0.00 0.00 78 1014.2
20260510154333 18 234 4.8 8.0 0.00 0.00 0.00 78 1014.3
20260510153828 18 201 4.8 8.0 0.00 0.00 0.00 79 1014.5
20260510153324 17 246 1.6 1.6 0.00 0.00 0.00 80 1014.3
20260510152821 17 256 3.2 3.2 0.00 0.00 0.00 80 1014.5
20260510152318 17 203 1.6 3.2 0.00 0.00 0.00 82 1014.4
20260510151814 17 251 0.0 1.6 0.00 0.00 0.00 83 1014.6
20260510151312 17 239 0.0 0.0 0.00 0.00 0.00 84 1014.3
20260510150808 16 231 1.6 1.6 0.00 0.00 0.00 84 1014.6
20260510150304 16 257 3.2 3.2 0.00 0.00 0.00 84 1014.4
20260510145800 16 231 0.0 0.0 0.00 0.00 0.00 86 1014.5
20260510145257 15 236 0.0 0.0 0.00 0.00 0.00 88 1014.3
20260510144753 15 292 4.8 4.8 0.00 0.00 0.00 88 1014.3
20260510144250 15 257 1.6 3.2 0.00 0.00 0.00 87 1014.5
20260510143749 15 270 0.0 0.0 0.00 0.00 0.00 87 1014.5
20260510143246 15 216 0.0 1.6 0.00 0.00 0.00 88 1014.5
20260510142743 14 254 1.6 1.6 0.00 0.00 0.00 90 1014.4
20260510142240 13 243 0.0 0.0 0.00 0.00 0.00 92 1014.4
20260510141737 13 271 1.6 1.6 0.00 0.00 0.00 92 1014.3
20260510141235 13 259 1.6 3.2 0.00 0.00 0.00 93 1014.3
20260510140731 13 271 3.2 3.2 0.00 0.00 0.00 93 1014.2
20260510140232 13 256 4.8 4.8 0.00 0.00 0.00 94 1014.2
20260510135726 13 223 0.0 0.0 0.00 0.00 0.00 96 1014.2
20260510135222 12 222 3.2 3.2 0.00 0.00 0.00 97 1014.3
20260510134720 12 268 1.6 1.6 0.00 0.00 0.00 97 1014.3
20260510134217 12 237 0.0 0.0 0.00 0.00 0.00 97 1014.1
20260510133713 12 253 1.6 1.6 0.00 0.00 0.00 97 1014.4
20260510133208 12 225 1.6 1.6 0.00 0.00 0.00 97 1014.3
20260510132705 12 129 3.2 3.2 0.00 0.00 0.00 97 1014.3
20260510132203 12 227 0.0 0.0 0.00 0.00 0.00 97 1014.5
20260510131700 12 224 0.0 1.6 0.00 0.00 0.00 97 1014.5
20260510131157 12 209 0.0 1.6 0.00 0.00 0.00 97 1014.4
20260510130653 11 242 4.8 4.8 0.00 0.00 0.00 97 1014.6
20260510130150 11 284 1.6 1.6 0.00 0.00 0.00 97 1014.4
20260510125646 11 253 3.2 3.2 0.00 0.00 0.00 97 1014.1
20260510125143 11 234 0.0 1.6 0.00 0.00 0.00 97 1014.3
20260510124640 11 223 1.6 3.2 0.00 0.00 0.00 97 1013.9
20260510124137 11 169 1.6 1.6 0.00 0.00 0.00 97 1013.6
20260510123632 11 231 1.6 3.2 0.00 0.00 0.00 97 1013.8
20260510123128 11 206 3.2 3.2 0.00 0.00 0.00 97 1013.8
20260510122624 11 230 0.0 0.0 0.00 0.00 0.00 97 1013.6
20260510122121 11 240 0.0 0.0 0.00 0.00 0.00 97 1013.8
20260510121618 11 224 0.0 0.0 0.00 0.00 0.00 97 1013.8
20260510121115 11 236 1.6 1.6 0.00 0.00 0.00 97 1013.9
20260510120613 11 230 0.0 0.0 0.00 0.00 0.00 97 1013.3
20260510120108 11 229 0.0 0.0 0.00 0.00 0.00 97 1013.2
20260510115605 11 216 1.6 1.6 0.00 0.00 0.00 97 1013.1
20260510115102 11 234 0.0 0.0 0.00 0.00 0.00 97 1013.3
20260510114558 10 230 0.0 0.0 0.00 0.00 0.00 97 1013.2
20260510114054 10 217 0.0 0.0 0.00 0.00 0.00 97 1013.3
20260510113549 10 229 0.0 0.0 0.00 0.00 0.00 97 1013.3
20260510113047 10 228 0.0 0.0 0.00 0.00 0.00 97 1013.5
20260510112543 10 219 0.0 0.0 0.00 0.00 0.00 97 1013.3
20260510112040 10 242 0.0 0.0 0.00 0.00 0.00 97 1013.4
20260510111537 10 225 0.0 0.0 0.00 0.00 0.00 97 1013.4
20260510111033 10 239 0.0 0.0 0.00 0.00 0.00 97 1013.3
20260510110529 10 251 1.6 1.6 0.00 0.00 0.00 97 1013.5
20260510110025 10 251 0.0 0.0 0.00 0.00 0.00 97 1013.1
20260510105520 10 244 1.6 1.6 0.00 0.00 0.00 97 1013.1
20260510105016 10 233 0.0 0.0 0.00 0.00 0.00 97 1013.0
20260510104513 10 242 0.0 0.0 0.00 0.00 0.00 97 1013.0
20260510104009 10 238 0.0 0.0 0.00 0.00 0.00 97 1012.9
20260510103506 10 232 0.0 0.0 0.00 0.00 0.00 97 1012.7
20260510103002 9 230 0.0 0.0 0.00 0.00 0.00 97 1012.7
20260510102458 9 234 0.0 0.0 0.00 0.00 0.00 97 1012.7
20260510101954 9 231 0.0 0.0 0.00 0.00 0.00 97 1012.6
20260510101452 9 240 0.0 0.0 0.00 0.00 0.00 97 1012.6
20260510100951 9 237 0.0 0.0 0.00 0.00 0.00 97 1012.7
20260510100446 9 235 0.0 0.0 0.00 0.00 0.00 97 1012.7
20260510095943 9 237 0.0 0.0 0.00 0.00 0.00 97 1012.5
20260510095439 10 230 0.0 0.0 0.00 0.00 0.00 97 1012.5
20260510094938 10 238 0.0 0.0 0.00 0.00 0.00 97 1012.6
20260510094433 10 238 0.0 0.0 0.00 0.00 0.00 97 1012.6
20260510093929 10 229 0.0 0.0 0.00 0.00 0.00 97 1012.6
20260510093424 10 233 0.0 0.0 0.00 0.00 0.00 97 1012.8
20260510092922 10 232 0.0 0.0 0.00 0.00 0.00 97 1012.7
20260510092419 10 233 0.0 0.0 0.00 0.00 0.00 97 1012.7
20260510091918 10 234 0.0 0.0 0.00 0.00 0.00 97 1012.6
20260510091416 10 224 0.0 0.0 0.00 0.00 0.00 97 1012.8
20260510090912 10 237 0.0 0.0 0.00 0.00 0.00 97 1012.8
20260510090409 10 224 0.0 0.0 0.00 0.00 0.00 97 1012.6
20260510085905 10 248 0.0 0.0 0.00 0.00 0.00 97 1012.9
20260510085400 10 223 0.0 0.0 0.00 0.00 0.00 97 1013.0
20260510084855 10 229 0.0 0.0 0.00 0.00 0.00 97 1013.3
20260510084353 10 82 3.2 4.8 0.00 0.00 0.00 97 1013.1
20260510083850 10 218 0.0 0.0 0.00 0.00 0.00 97 1013.0
20260510083346 10 270 1.6 3.2 0.00 0.00 0.00 97 1013.0
20260510082842 10 257 1.6 3.2 0.00 0.00 0.00 97 1013.4
20260510082339 10 198 3.2 3.2 0.00 0.00 0.00 97 1012.9
20260510081838 10 321 4.8 4.8 0.00 0.00 0.00 97 1013.1
20260510081334 10 122 4.8 4.8 0.00 0.00 0.00 97 1012.9
20260510080831 10 327 4.8 4.8 0.00 0.00 0.00 97 1012.4
20260510080325 10 250 0.0 0.0 0.00 0.00 0.00 97 1012.2
20260510075822 10 271 0.0 0.0 0.00 0.00 0.00 97 1012.2
20260510075320 10 235 0.0 0.0 0.00 0.00 0.00 97 1012.0
20260510074816 10 222 0.0 0.0 0.00 0.00 0.00 97 1012.2
20260510074314 10 243 0.0 0.0 0.00 0.00 0.00 97 1012.0
20260510073809 10 243 0.0 0.0 0.00 0.00 0.00 97 1012.0
20260510073306 10 241 0.0 0.0 0.00 0.00 0.00 97 1012.1
20260510072801 10 237 0.0 0.0 0.00 0.00 0.00 97 1012.1
20260510072258 10 238 0.0 0.0 0.00 0.00 0.00 97 1011.9
20260510071754 10 252 0.0 0.0 0.00 0.00 0.00 97 1011.9
20260510071252 10 235 0.0 0.0 0.00 0.00 0.00 97 1012.0
20260510070751 10 235 0.0 0.0 0.00 0.00 0.00 97 1012.1
20260510070247 10 237 0.0 0.0 0.00 0.00 0.00 97 1012.0
20260510065746 10 234 0.0 0.0 0.00 0.00 0.00 97 1012.1
20260510065244 10 257 0.0 0.0 0.00 0.00 0.00 97 1012.1
20260510064740 10 234 0.0 0.0 0.00 0.00 0.00 97 1012.2
20260510064238 10 259 0.0 0.0 0.00 0.00 0.00 97 1012.0
20260510063734 10 267 0.0 1.6 0.00 0.00 0.00 97 1012.1
20260510063230 10 269 0.0 0.0 0.00 0.00 0.00 97 1012.1
20260510062727 10 254 0.0 0.0 0.00 0.00 0.00 97 1012.0
20260510062223 9 246 0.0 0.0 0.00 0.00 0.00 97 1011.9
20260510061718 9 240 0.0 0.0 0.00 0.00 0.00 97 1011.8
20260510061216 9 235 0.0 0.0 0.00 0.00 0.00 97 1011.9
20260510060712 9 240 0.0 0.0 0.00 0.00 0.00 97 1011.9
20260510060209 9 237 0.0 0.0 0.00 0.00 0.00 97 1011.7
20260510055705 9 234 0.0 0.0 0.00 0.00 0.00 97 1011.9
20260510055203 9 237 0.0 0.0 0.00 0.00 0.00 97 1012.0
20260510054659 9 234 0.0 0.0 0.00 0.00 0.00 97 1011.8
20260510054155 8 232 0.0 0.0 0.00 0.00 0.00 97 1012.0
20260510053654 8 234 0.0 0.0 0.00 0.00 0.00 97 1012.1
20260510053151 8 234 0.0 0.0 0.00 0.00 0.00 97 1012.2
20260510052646 8 234 0.0 0.0 0.00 0.00 0.00 97 1012.0
20260510052143 8 234 0.0 0.0 0.00 0.00 0.00 97 1012.0
20260510051639 8 238 0.0 0.0 0.00 0.00 0.00 97 1012.2
20260510051135 8 234 0.0 0.0 0.00 0.00 0.00 97 1012.0
20260510050633 8 239 0.0 0.0 0.00 0.00 0.00 97 1012.2
20260510050130 8 231 0.0 0.0 0.00 0.00 0.00 97 1012.1
20260510045626 8 243 0.0 0.0 0.00 0.00 0.00 97 1012.2
20260510045123 8 237 0.0 0.0 0.00 0.00 0.00 97 1012.2
20260510044619 8 230 0.0 0.0 0.00 0.00 0.00 97 1012.2
20260510044117 8 234 0.0 0.0 0.00 0.00 0.00 97 1012.3
20260510043613 7 235 0.0 0.0 0.00 0.00 0.00 97 1012.1
20260510043108 7 236 0.0 0.0 0.00 0.00 0.00 97 1012.3
20260510042601 7 231 0.0 0.0 0.00 0.00 0.00 97 1012.2
20260510042056 7 235 0.0 0.0 0.00 0.00 0.00 97 1012.2
20260510041554 7 234 0.0 0.0 0.00 0.00 0.00 97 1012.4
20260510041051 7 234 0.0 0.0 0.00 0.00 0.00 97 1012.5
20260510040548 7 232 0.0 0.0 0.00 0.00 0.00 97 1012.3
20260510040044 7 231 0.0 0.0 0.00 0.33 0.33 97 1012.4
20260510035541 7 231 0.0 0.0 0.00 0.33 0.33 97 1012.4
20260510035040 7 228 0.0 0.0 0.00 0.33 0.33 97 1012.2
20260510034538 7 234 0.0 0.0 0.00 0.33 0.33 97 1012.1
20260510034035 7 231 0.0 0.0 0.00 0.33 0.33 97 1011.9
20260510033531 7 231 0.0 0.0 0.00 0.33 0.33 97 1012.0
20260510033030 7 234 0.0 0.0 0.00 0.33 0.33 97 1011.8
20260510032526 7 245 0.0 0.0 0.00 0.33 0.33 97 1011.8
20260510032021 7 232 0.0 0.0 0.00 0.33 0.33 97 1012.0
20260510031516 7 228 0.0 0.0 0.00 0.33 0.33 97 1011.8
20260510031012 7 232 0.0 0.0 0.00 0.33 0.33 97 1011.8
20260510030508 7 235 0.0 0.0 0.00 0.33 0.33 97 1011.8
20260510030005 7 234 0.0 0.0 0.00 0.33 0.33 97 1011.8
20260510025502 7 231 0.0 0.0 0.00 0.33 0.33 97 1011.8
20260510025000 7 234 0.0 0.0 0.00 0.33 0.33 97 1011.8
20260510024456 7 232 0.0 0.0 0.00 0.33 0.33 97 1011.7
20260510023952 8 235 0.0 0.0 0.00 0.33 0.33 97 1011.8
20260510023448 7 233 0.0 0.0 0.00 0.33 0.33 97 1011.8
20260510022945 7 233 0.0 0.0 0.00 0.33 0.33 97 1011.8
20260510022444 8 233 0.0 0.0 0.00 0.33 0.33 97 1011.9
20260510021944 8 234 0.0 0.0 0.00 0.33 0.33 97 1011.9
20260510021442 8 233 0.0 0.0 0.00 0.33 0.33 97 1011.9
20260510020938 8 221 0.0 0.0 0.00 0.33 0.33 96 1011.9
20260510020433 8 228 0.0 0.0 0.00 0.33 0.33 96 1011.5
20260510015929 8 233 0.0 0.0 0.00 0.33 0.33 96 1011.7
20260510015425 8 236 0.0 0.0 0.00 0.33 0.33 96 1011.9
20260510014920 8 238 0.0 0.0 0.00 0.33 0.33 96 1011.8
20260510014418 8 234 0.0 0.0 0.00 0.33 0.33 96 1011.9
20260510013914 8 230 0.0 0.0 0.00 0.33 0.33 96 1011.7
20260510013409 9 229 0.0 0.0 0.00 0.33 0.33 96 1011.8
20260510012904 9 231 0.0 0.0 0.00 0.33 0.33 96 1011.9
20260510012400 9 231 0.0 0.0 0.00 0.33 0.33 95 1011.7
20260510011854 9 234 0.0 0.0 0.00 0.33 0.33 95 1011.8
20260510011350 10 229 0.0 0.0 0.00 0.33 0.33 95 1011.6
20260510010846 10 231 0.0 0.0 0.00 0.33 0.33 95 1011.9
20260510010344 10 234 0.0 0.0 0.00 0.33 0.33 95 1011.7
20260510005840 10 234 0.0 0.0 0.00 0.33 0.33 95 1011.6
20260510005337 10 234 0.0 0.0 0.00 0.33 0.33 95 1011.4
20260510004834 10 238 0.0 0.0 0.00 0.33 0.33 95 1011.3
20260510004332 10 232 0.0 0.0 0.00 0.33 0.33 94 1011.3
20260510003829 11 228 0.0 0.0 0.00 0.33 0.33 95 1011.3
20260510003326 11 228 0.0 0.0 0.00 0.33 0.33 94 1011.1
20260510002825 11 227 0.0 0.0 0.00 0.33 0.33 94 1011.0
20260510002322 11 234 0.0 0.0 0.00 0.33 0.33 94 1011.2
20260510001819 11 230 0.0 0.0 0.00 0.33 0.33 93 1011.2
20260510001317 11 228 0.0 0.0 0.00 0.33 0.33 93 1011.1
20260510000812 11 231 0.0 0.0 0.00 0.33 0.33 93 1011.1
20260510000311 11 232 0.0 0.0 0.00 0.33 0.33 92 1011.1
20260509235807 12 233 0.0 0.0 0.00 0.33 0.33 92 1011.1
20260509235306 12 233 0.0 0.0 0.00 0.33 0.33 92 1011.3
20260509234759 12 235 0.0 0.0 0.00 0.33 0.33 91 1011.1
20260509234256 12 233 0.0 0.0 0.00 0.33 0.33 91 1011.2
20260509233755 13 231 0.0 0.0 0.00 0.33 0.33 90 1011.2
20260509233252 13 231 0.0 0.0 0.00 0.33 0.33 90 1011.2
20260509232748 13 229 0.0 0.0 0.00 0.33 0.33 90 1011.1
20260509232245 13 227 0.0 0.0 0.00 0.33 0.33 89 1011.0
20260509231741 13 229 0.0 0.0 0.00 0.33 0.33 88 1010.6
20260509231238 13 234 0.0 0.0 0.00 0.33 0.33 88 1010.8
20260509230736 14 235 0.0 0.0 0.00 0.33 0.33 89 1010.9
20260509230233 14 232 0.0 0.0 0.00 0.33 0.33 89 1010.8
20260509225728 13 217 1.6 1.6 0.00 0.33 0.33 89 1011.0
20260509225224 13 236 0.0 0.0 0.00 0.33 0.33 90 1011.1
20260509224720 13 224 0.0 1.6 0.00 0.33 0.33 90 1011.1
20260509224217 13 217 3.2 3.2 0.00 0.33 0.33 90 1011.1
20260509223714 13 227 0.0 0.0 0.00 0.33 0.33 91 1011.1
20260509223211 13 229 0.0 0.0 0.00 0.33 0.33 92 1011.1
20260509222708 13 220 1.6 3.2 0.00 0.33 0.33 91 1011.2
20260509222203 13 200 1.6 3.2 0.00 0.33 0.33 92 1011.1
20260509221659 13 156 1.6 3.2 0.00 0.33 0.33 92 1011.0
20260509221155 13 211 0.0 1.6 0.00 0.33 0.33 93 1011.2
20260509220652 13 189 0.0 0.0 0.00 0.33 0.33 93 1011.1
20260509220148 13 234 0.0 0.0 0.00 0.33 0.33 93 1011.5
20260509215644 13 200 1.6 3.2 0.00 0.33 0.33 93 1011.4
20260509215141 13 187 3.2 3.2 0.00 0.33 0.33 93 1011.5
20260509214638 13 231 0.0 0.0 0.00 0.33 0.33 93 1011.4
20260509214135 13 177 0.0 1.6 0.00 0.33 0.33 93 1011.5
20260509213631 13 232 0.0 0.0 0.00 0.33 0.33 94 1011.4
20260509213127 13 230 0.0 0.0 0.18 0.33 0.33 94 1011.4
20260509212625 13 224 0.0 0.0 0.30 0.33 0.33 94 1011.3
20260509212122 12 215 0.0 0.0 0.43 0.28 0.28 93 1011.3
20260509211617 12 228 0.0 1.6 0.48 0.28 0.28 93 1011.5
20260509211114 12 235 0.0 0.0 0.18 0.23 0.23 93 1011.5
20260509210611 12 235 0.0 0.0 0.00 0.18 0.18 93 1011.5
20260509210108 12 219 0.0 0.0 0.00 0.18 0.18 92 1011.3
20260509205602 12 236 0.0 0.0 0.13 0.18 0.18 92 1011.1
20260509205057 13 217 0.0 0.0 0.23 0.18 0.18 91 1011.0
20260509204554 13 239 0.0 0.0 0.30 0.18 0.18 91 1011.2
20260509204051 12 256 0.0 0.0 0.30 0.15 0.15 91 1011.5
20260509203546 13 298 1.6 1.6 0.13 0.13 0.13 90 1011.2
20260509203045 13 259 1.6 3.2 0.00 0.10 0.10 90 1011.4
20260509202539 13 324 4.8 4.8 0.00 0.10 0.10 90 1011.3
20260509202035 13 359 3.2 3.2 0.18 0.10 0.10 90 1011.3
20260509201530 13 298 1.6 1.6 0.00 0.08 0.08 90 1011.3
20260509201028 13 270 0.0 1.6 0.00 0.08 0.08 90 1011.3
20260509200527 13 313 1.6 1.6 0.00 0.08 0.08 90 1011.5
20260509200024 13 278 3.2 3.2 0.00 0.08 0.08 90 1011.3
20260509195520 13 326 4.8 4.8 0.00 0.08 0.08 91 1011.6
20260509195019 13 241 1.6 1.6 0.00 0.08 0.08 91 1011.7
20260509194514 13 245 0.0 0.0 0.00 0.08 0.08 91 1012.0
20260509194012 13 251 0.0 0.0 0.00 0.08 0.08 91 1011.9
20260509193507 13 239 0.0 0.0 0.13 0.08 0.08 91 1011.7